This demonstration page uses our WeatherBlox Daily Observations layout. Learn more.

Left ArrowRight Arrow

Hourly Observations for November 17, 2018

Temp ( °F °C ) Dew Point ( °F °C ) Humidity (%) Winds ( mph kmh ) Pressure ( in mb ) Visibility ( mi km ) Precip ( " mm )
12:24 am 00:24 Partly Cloudy with Mist and Fog 7 -14 7 -14 100 100 WSW 3 6 30.77 1042 2 3 0.00 0.00
12:29 am 00:29 Mostly Cloudy with Mist and Fog 7 -13.9 6 -14.4 96 96 SW 5 7 30.77 1042 1 2 0.00 0.00
12:42 am 00:42 Mostly Clear with Mist and Fog 5 -15 3 -16 92 92 SW 3 6 30.77 1042 2 2 0.00 0.00
12:46 am 00:46 Mostly Cloudy with Mist and Fog 5 -15 3 -16.1 91 91 SSW 5 7 30.77 1042 1 2 0.00 0.00
12:53 am 00:53 Clear with Mist and Fog 3 -16.1 2 -16.7 95 95 SSW 5 7 30.66 1038 1 2 0.00 0.00
12:57 am 00:57 Clear with Mist and Fog 1 -17.2 0 -17.8 95 95 SSW 5 7 30.80 1043 2 3 0.00 0.00
1:04 am 01:04 Clear 1 -17 0 -18 92 92 SSW 5 7 30.80 1043 10 16 0.00 0.00
1:53 am 01:53 Mostly Clear 0 -17.8 -3 -19.4 87 87 S 6 9 30.66 1038 10 16 0.00 0.00
2:53 am 02:53 Clear 1 -17.2 -1 -18.3 91 91 Calm 30.66 1038 10 16 0.00 0.00
3:29 am 03:29 Partly Cloudy -1 -18.3 -3 -19.4 91 91 Calm 30.83 1044 10 16 0.00 0.00
3:40 am 03:40 Mostly Cloudy 0 -18 -2 -19 92 92 Calm 30.80 1043 10 16 0.00 0.00
3:53 am 03:53 Mostly Cloudy -2 -18.9 -5 -20.6 87 87 Calm 30.65 1038 10 16 0.00 0.00
4:53 am 04:53 Mostly Cloudy -2 -18.9 -6 -21.1 83 83 WNW 5 7 30.64 1038 10 16 0.00 0.00
5:21 am 05:21 Partly Cloudy -1 -18.3 -4 -20 87 87 Calm 30.77 1042 10 16 0.00 0.00
5:53 am 05:53 Clear -3 -19.4 -7 -21.7 82 82 Calm 30.63 1037 10 16 0.00 0.00
6:53 am 06:53 Clear -5 -20.6 -8 -22.2 87 87 Calm 30.61 1037 10 16 0.00 0.00
7:53 am 07:53 Sunny 0 -17.8 -4 -20 83 83 WSW 3 6 30.60 1036 10 16 0.00 0.00
8:53 am 08:53 Sunny 4 -15.6 0 -17.8 83 83 W 3 6 30.58 1036 10 16 0.00 0.00
9:53 am 09:53 Sunny 15 -9.4 11 -11.7 84 84 WSW 15 24 30.54 1034 10 16 0.00 0.00
10:53 am 10:53 Sunny 17 -8.3 12 -11.1 80 80 WSW 17 28 30.51 1033 10 16 0.00 0.00
11:53 am 11:53 Sunny 19 -7.2 13 -10.6 77 77 SW 21 33 30.48 1032 10 16 0.00 0.00
12:53 pm 12:53 Sunny 21 -6.1 12 -11.1 68 68 WSW 16 26 30.46 1031 10 16 0.00 0.00
1:53 pm 13:53 Sunny 23 -5 14 -10 68 68 W 13 20 30.45 1031 10 16 0.00 0.00
2:53 pm 14:53 Sunny 23 -5 13 -10.6 65 65 WSW 14 22 30.42 1030 10 16 0.00 0.00
3:53 pm 15:53 Sunny 22 -5.6 13 -10.6 68 68 WSW 9 15 30.40 1029 10 16 0.00 0.00
4:53 pm 16:53 Clear 17 -8.3 10 -12.2 74 74 W 7 11 30.39 1029 10 16 0.00 0.00
5:53 pm 17:53 Clear 12 -11.1 8 -13.3 84 84 NW 5 7 30.38 1029 10 16 0.00 0.00
6:53 pm 18:53 Clear 14 -10 10 -12.2 84 84 SW 14 22 30.33 1027 10 16 0.00 0.00
7:53 pm 19:53 Clear 13 -10.6 9 -12.8 84 84 SW 13 20 30.31 1026 10 16 0.00 0.00
8:53 pm 20:53 Clear 12 -11.1 8 -13.3 84 84 SW 13 20 30.29 1026 10 16 0.00 0.00
9:53 pm 21:53 Clear 13 -10.6 10 -12.2 88 88 WSW 10 17 30.26 1025 10 16 0.00 0.00
10:53 pm 22:53 Clear 15 -9.4 11 -11.7 84 84 WSW 9 15 30.23 1024 10 16 0.00 0.00
11:53 pm 23:53 Clear 17 -8.3 12 -11.1 80 80 WSW 12 19 30.19 1023 10 16 0.00 0.00

Powered by AerisWeather